Regional Weather Roundup
Issued by NWS

Home | Current Version | Previous Version | Graphics & Text | Print | Product List | Glossary On
Versions: 1 2 3 4 5 6 7 8 9 10 11 12 13 14 15 16 17 18 19 20 21 22 23 24 25 26 27 28 29 30 31 32 33 34 35 36 37 38 39 40 41 42 43 44 45 46 47 48 49 50
000
ASUS43 KLMK 220310
RWRKY
KENTUCKY REGIONAL WEATHER ROUNDUP
NATIONAL WEATHER SERVICE LOUISVILLE KY
1100 PM EDT THU AUG 21 2014

NOTE "FAIR" INDICATES FEW OR NO CLOUDS BELOW 12,000 FEET
WITH NO SIGNIFICANT WEATHER AND/OR OBSTRUCTIONS TO VISIBILITY.

KYZ001>023-026-027-061>063-070>075-220400-
WESTERN AND SOUTH CENTRAL KENTUCKY

CITY           SKY/WX    TMP DP  RH WIND       PRES   REMARKS
PADUCAH        MOCLDY    84  74  71 S6        30.01R HX  91
HENDERSON      CLEAR     77  70  78 SW5       30.00R
OWENSBORO      PTCLDY    79  73  81 SW7       30.02R
HOPKINSVILLE   CLEAR     80  74  82 S7        30.06R
BOWLING GREEN  PTCLDY    83  70  64 SW8       30.05R
GLASGOW        CLEAR     78  71  79 CALM      30.07R
$$

KYZ024-025-028>034-038-045-046-053-220400-
NORTH CENTRAL KENTUCKY

CITY           SKY/WX    TMP DP  RH WIND       PRES   REMARKS
LOUISVILLE/SDF PTCLDY    80  72  76 S6        30.01R
LOUISVILLE/LOU CLEAR     81  73  76 S3        30.02R
FORT KNOX      CLEAR     76  75  97 S5        30.03R
$$

KYZ035>037-039>044-047>052-055>060-089>105-220400-
NORTHEAST KENTUCKY

CITY           SKY/WX    TMP DP  RH WIND       PRES   REMARKS
LEXINGTON      CLEAR     79  71  76 S7        30.05S
COVINGTON      CLOUDY    76  72  87 S5        30.03R
FRANKFORT      CLEAR     76  71  85 SW5       30.03R
$$

KYZ054-064>069-076>088-106>120-220400-
SOUTHEAST KENTUCKY

CITY           SKY/WX    TMP DP  RH WIND       PRES   REMARKS
JACKSON        CLOUDY    71  68  90 CALM      30.10R
LONDON         PTCLDY    78  71  79 S3        30.10S
SOMERSET       PTCLDY    77  73  88 CALM      30.10R
MIDDLESBORO    PTCLDY    73  71  93 CALM      30.12S
MONTICELLO     CLEAR     75  73  93 CALM      30.11R
$$




USA.gov is the U.S. government's official web portal to all federal, state and local government web resources and services.